Theta_e
300 300 299 299 298 298 298 298 298 298 298 298 299 299 299 299 300 301 302 302 306 310 312 318 319 319 318 318 321 324 328 325 323 322 321 321 322 322 322 321 322 321 321
299 299 298 298 297 297 297 297 297 297 297 297 297 297 298 299 300 300 301 302 304 308 313 318 319 320 323 323 320 320 323 321 320 318 317 318 318 319 318 318 318 318 318
299 298 298 297 297 297 296 296 296 296 296 296 295 296 297 298 299 299 300 301 304 305 311 314 316 316 317 319 320 320 320 319 318 316 315 316 315 315 316 315 315 315 315
298 297 297 296 296 296 296 295 295 295 295 295 295 296 297 297 297 298 299 300 303 305 306 309 310 311 313 315 317 319 318 317 317 315 314 312 312 312 311 312 312 312 313
298 297 296 296 295 295 295 295 294 295 294 294 294 296 295 295 296 297 297 299 301 305 305 304 304 306 309 311 312 313 315 314 313 312 310 310 309 309 310 310 310 310 311
297 296 295 295 294 294 294 294 293 293 293 293 293 293 295 297 296 296 296 298 301 302 302 300 301 302 305 308 309 310 312 313 311 310 308 308 309 308 308 309 310 310 310
296 295 294 294 294 293 293 293 292 292 292 292 293 293 293 296 296 297 297 298 300 299 299 299 300 300 301 303 307 309 309 310 309 308 307 307 307 307 308 310 310 311 310
296 294 294 293 293 292 291 291 292 291 291 292 291 290 290 292 294 294 296 296 297 297 297 296 297 297 299 301 304 306 307 307 306 305 305 305 306 307 308 309 310 311 311
295 295 294 293 292 292 291 291 291 291 290 290 291 291 288 288 290 293 293 294 294 296 295 295 295 295 297 298 299 299 300 300 301 302 303 303 304 305 307 309 310 310 311
294 294 293 293 292 292 291 290 290 291 290 289 290 291 290 290 289 289 292 292 293 293 294 294 295 294 294 296 294 294 295 296 297 299 300 301 302 303 305 308 309 310 310
294 293 293 292 291 291 291 290 289 289 290 289 289 288 288 288 288 288 288 290 292 291 292 293 293 294 293 293 293 292 293 294 295 297 299 299 300 302 303 305 307 308 309
292 292 291 291 291 290 290 290 289 289 289 289 289 288 289 288 287 287 287 288 288 291 290 292 292 292 293 293 291 291 292 293 294 295 296 298 298 299 301 303 305 306 307
290 290 290 289 289 289 289 289 288 288 288 288 288 287 287 288 288 288 287 286 286 288 288 289 291 292 292 293 292 291 291 292 293 294 294 296 297 298 299 301 302 304 304
292 290 290 289 288 288 288 287 288 287 287 288 286 286 286 287 287 288 287 286 284 285 285 287 287 288 290 292 291 291 291 289 291 293 294 294 296 297 298 299 300 301 301
290 287 287 287 287 286 286 286 286 285 285 285 284 284 285 285 286 287 287 287 286 283 283 284 285 287 288 290 289 290 289 288 290 292 293 293 294 296 297 297 298 298 299
287 287 286 286 285 285 285 284 284 283 283 283 284 283 284 286 286 287 287 287 287 284 282 283 286 288 287 288 287 287 287 287 288 290 291 292 293 294 295 296 296 296 297
286 286 286 284 283 283 283 283 283 282 283 283 284 284 284 285 286 286 286 286 285 285 282 285 283 285 285 286 287 286 286 286 287 287 290 291 292 293 294 295 295 295 295
286 285 285 284 282 281 281 282 281 282 282 282 283 283 283 284 284 285 285 284 284 285 283 281 285 285 284 284 284 283 285 285 285 286 289 290 291 293 294 293 294 294 294
284 284 283 282 282 281 281 282 282 282 282 282 281 282 282 282 282 284 284 284 284 284 284 282 282 285 285 285 284 283 283 284 284 286 289 290 290 291 293 292 293 293 293
283 283 284 283 283 282 282 282 282 281 281 281 281 281 282 282 282 283 283 283 283 283 283 282 282 282 284 284 282 281 281 282 283 284 285 286 287 288 292 292 290 289 289
283 283 282 282 282 282 282 281 281 280 280 280 281 282 283 283 284 284 283 283 283 282 282 281 281 281 281 281 280 279 278 280 282 282 283 284 285 286 288 289 288 288 288
280 281 281 281 280 282 284 284 282 281 281 280 280 281 282 282 283 285 286 285 284 282 281 281 280 279 280 280 281 279 278 278 280 280 281 282 283 284 285 286 286 287 288
279 279 279 280 280 281 284 285 284 281 281 280 281 281 281 282 282 282 284 286 286 286 285 282 280 280 279 280 279 277 276 277 279 280 280 281 281 282 284 283 286 288 289
278 278 278 278 279 279 284 285 284 283 281 281 281 281 281 282 282 282 282 282 282 283 285 285 282 281 281 281 280 279 278 277 277 278 277 279 279 281 283 283 283 286 288
277 277 278 277 278 278 283 284 284 282 282 281 282 282 282 281 283 284 281 280 280 280 283 285 285 285 284 284 282 279 277 277 277 277 276 279 277 279 280 281 280 282 286
276 277 277 277 278 277 281 282 283 281 280 280 282 282 282 282 283 284 283 280 279 279 279 279 279 281 284 283 286 283 281 278 278 278 277 278 276 277 279 278 278 280 281
Wind_Speed
6 5 4 4 3 3 4 4 4 4 4 4 4 4 4 3 3 2 2 5 5 6 8 7 5 5 3 3 4 4 10 9 13 15 12 10 10 10 9 9 8 7 6
7 6 5 4 4 3 3 3 3 4 3 3 3 4 3 3 3 2 2 2 5 6 6 7 7 7 9 8 4 3 5 6 8 12 11 10 9 9 8 7 6 5 4
8 8 6 5 5 4 6 4 4 3 3 2 1 1 1 2 1 1 1 1 1 3 5 5 7 6 6 6 7 7 8 7 9 11 9 12 11 9 8 7 5 4 4
9 8 6 5 6 5 4 3 3 3 2 1 1 2 2 2 3 3 1 0 0 1 3 5 5 6 5 4 6 8 8 6 11 8 9 6 7 6 4 4 4 4 3
10 8 7 6 7 5 4 4 3 2 2 0 2 1 2 3 3 2 2 1 1 1 1 6 8 9 7 5 5 4 4 4 6 7 6 5 4 4 5 5 4 4 3
10 8 7 7 7 6 5 3 3 2 2 1 2 2 2 2 2 1 1 1 2 2 2 3 3 4 7 7 4 4 4 6 6 6 4 4 5 4 4 5 6 6 5
11 9 7 8 7 7 6 5 3 3 2 1 1 1 2 3 4 3 1 1 3 3 3 2 2 2 3 6 6 4 3 5 6 5 4 3 4 5 6 7 7 7 6
11 9 9 8 9 6 6 6 4 3 2 1 2 1 1 1 1 3 2 1 3 2 3 3 3 3 3 2 2 7 8 8 6 4 5 4 5 6 6 7 7 9 7
11 10 10 8 9 7 6 7 6 5 3 1 1 1 2 3 1 1 2 1 2 1 1 2 2 2 3 2 4 6 7 6 5 5 6 5 5 6 7 8 8 8 8
12 11 10 9 9 6 8 7 5 4 4 4 1 1 1 1 2 2 1 1 1 1 1 0 1 2 2 1 4 5 5 5 5 6 6 5 6 7 7 8 8 7 6
12 12 11 10 9 7 7 8 8 6 4 3 3 3 2 1 1 3 2 1 2 2 2 2 2 2 3 2 1 2 5 6 7 7 7 6 7 7 8 8 9 8 7
8 10 11 10 10 9 10 8 7 8 6 4 4 4 3 3 3 3 5 3 2 1 2 3 4 3 3 3 3 3 3 6 8 9 9 8 8 8 9 8 9 9 8
7 11 12 11 9 9 9 8 8 8 8 7 7 4 3 3 2 2 2 1 3 1 2 2 3 3 4 4 5 4 2 4 9 11 9 9 9 9 10 8 8 8 7
11 13 12 11 10 10 8 8 5 5 7 5 7 4 4 4 3 3 2 3 1 2 2 2 1 1 4 4 2 3 1 4 8 12 12 9 10 8 9 8 8 6 8
9 13 12 11 10 9 9 8 5 6 6 5 5 5 3 3 3 4 3 2 2 3 2 1 1 1 1 2 1 1 3 4 8 12 12 11 10 9 9 8 7 6 6
12 13 12 11 10 9 9 8 5 5 6 5 5 6 4 3 4 4 4 4 3 4 4 2 2 1 2 1 1 2 3 7 9 12 13 10 11 10 8 8 7 5 5
13 13 13 12 11 10 8 8 7 8 8 8 7 7 7 5 5 5 4 3 4 4 7 4 2 1 2 2 2 2 3 5 7 13 13 11 10 9 8 8 7 5 4
11 13 13 12 11 10 9 9 9 8 8 8 8 7 7 5 6 5 5 6 6 6 5 8 5 4 5 3 4 4 3 4 6 10 13 11 10 10 9 9 8 7 6
11 11 12 12 12 11 10 8 9 9 8 8 8 7 7 6 6 6 7 7 6 5 6 6 6 3 3 2 3 2 4 6 4 10 13 10 10 11 11 9 9 8 7
12 11 11 11 11 10 10 9 8 7 7 6 6 7 7 8 8 8 8 8 6 7 7 7 7 7 5 3 1 3 6 2 3 2 5 6 8 8 11 10 8 4 7
10 10 11 9 9 9 7 9 8 8 8 7 7 7 7 8 12 10 7 8 8 8 7 7 7 6 6 3 4 1 3 3 2 2 3 3 3 3 4 7 7 10 12
9 9 8 8 9 6 14 15 11 8 8 8 8 8 8 9 12 16 17 16 12 9 9 7 6 7 5 3 1 2 2 2 1 2 3 3 2 4 4 4 10 14 13
8 8 7 7 7 6 15 16 16 7 8 8 8 8 7 7 9 9 13 17 17 18 16 8 9 7 4 2 2 3 3 3 3 1 3 5 1 4 3 4 12 13 15
6 6 6 6 6 5 13 14 14 8 8 9 9 9 8 8 9 9 8 9 7 5 6 7 8 7 6 5 6 3 2 3 3 4 3 5 1 3 3 4 8 10 11
5 5 5 6 7 7 14 14 11 6 7 9 8 8 9 9 11 15 9 9 7 7 7 13 14 14 14 15 10 5 4 5 6 3 3 2 2 3 2 3 2 5 7
5 5 6 6 7 6 10 13 12 4 6 5 6 8 13 10 14 17 10 8 8 6 7 6 4 9 12 8 15 10 6 7 6 5 3 5 2 2 3 1 1 1 2
Wind_Direction
154 148 139 131 118 114 108 109 114 105 85 65 55 48 46 37 37 29 6 355 360 5 357 339 21 29 39 44 86 95 103 98 79 63 56 50 48 52 56 56 52 42 35
160 158 147 142 133 126 122 127 111 93 75 50 41 22 12 13 7 8 12 357 360 13 11 23 46 37 42 52 42 52 86 92 85 71 39 33 44 48 47 39 46 43 46
169 161 159 156 151 149 140 126 104 104 109 98 86 358 324 345 331 350 356 340 347 21 22 53 72 56 42 39 39 65 70 73 75 70 41 19 19 17 19 23 22 30 36
169 165 161 164 158 152 142 128 125 111 101 66 346 343 331 317 311 300 297 262 121 29 30 64 57 56 47 19 45 53 72 77 79 82 67 36 16 358 343 350 351 348 357
175 170 169 165 160 149 154 154 130 138 149 211 308 318 320 304 296 277 267 263 179 144 102 53 46 41 44 36 33 32 68 63 80 66 55 29 351 327 327 316 305 296 300
178 171 167 160 159 156 158 161 147 137 132 118 301 331 32 9 7 340 234 198 146 136 112 75 56 42 33 38 35 64 77 71 76 59 35 348 325 308 291 292 281 277 270
174 171 166 162 164 170 172 166 139 158 139 106 277 115 84 57 58 37 14 117 128 127 106 83 72 53 37 19 29 65 55 62 72 47 8 338 325 307 304 297 288 274 271
168 172 169 168 169 160 165 171 168 139 110 105 123 99 340 158 72 36 33 78 122 127 111 81 75 58 55 19 45 70 58 45 15 317 297 294 308 302 306 295 285 283 279
177 173 169 166 165 162 173 178 177 169 156 131 135 118 175 230 279 68 49 44 122 137 106 78 75 65 66 60 65 58 47 30 354 319 304 298 294 300 303 307 299 291 288
174 170 168 167 169 169 174 175 176 169 147 163 145 150 58 54 224 251 169 151 340 251 213 172 173 127 112 79 66 47 37 9 336 312 304 298 300 291 296 300 305 315 308
176 171 170 168 169 171 172 171 168 170 167 152 164 152 163 164 197 222 256 211 211 218 240 229 216 202 169 136 93 47 36 358 330 318 303 293 294 288 292 296 295 297 312
174 178 170 168 171 171 173 174 169 170 171 169 176 176 175 172 186 195 233 232 279 276 257 214 208 209 218 181 166 145 60 344 322 313 308 292 287 288 282 281 287 295 296
183 182 170 171 172 171 168 164 168 170 174 178 177 187 186 192 155 166 206 196 256 298 295 225 225 222 223 235 169 191 265 298 305 300 299 293 282 279 273 274 279 292 295
179 168 172 170 164 161 160 163 167 169 173 177 175 172 179 182 182 178 175 172 208 260 275 276 55 280 257 235 234 179 289 323 306 298 296 292 282 274 275 271 269 274 286
161 161 163 161 158 157 159 159 164 166 163 165 170 168 168 177 184 179 166 172 193 232 260 129 265 137 212 223 203 317 306 289 299 294 294 296 284 270 262 265 267 264 271
150 155 156 156 155 156 157 159 159 160 162 173 169 170 179 171 181 188 176 179 206 219 247 212 196 182 182 234 279 315 303 299 288 289 287 280 277 270 257 256 248 243 250
152 157 157 153 156 157 158 158 164 164 172 176 176 179 188 174 188 191 189 179 205 212 245 247 251 234 251 259 261 282 286 285 280 271 271 266 264 250 243 243 240 235 216
150 152 153 153 156 158 162 165 167 172 177 180 180 180 191 187 198 194 196 205 206 214 230 257 262 248 228 242 259 280 320 301 281 268 256 251 259 249 243 241 233 229 225
141 142 147 154 158 162 163 169 170 172 177 182 180 187 192 192 207 213 210 214 212 217 223 243 261 252 262 246 266 289 292 288 262 260 261 252 263 263 242 234 225 224 229
139 145 152 155 160 162 164 163 167 172 177 186 188 197 204 207 217 213 213 216 208 218 222 234 248 257 249 235 241 286 293 261 291 258 252 259 261 258 249 233 212 237 262
132 138 136 143 148 160 166 166 171 176 179 185 194 198 205 207 216 215 217 215 210 221 230 236 242 242 242 214 231 143 284 302 287 300 281 262 248 240 227 238 263 261 261
116 124 137 148 154 165 182 183 172 174 181 188 196 201 208 213 228 233 231 222 213 215 226 230 238 236 236 211 188 219 257 312 309 100 299 282 249 250 236 231 252 262 258
128 131 139 150 162 163 190 193 190 181 182 189 191 200 210 213 214 223 240 238 233 226 224 222 232 226 215 209 203 223 236 243 252 25 309 282 275 271 261 251 258 262 251
130 140 146 154 156 179 200 203 205 176 193 199 197 198 202 209 211 213 220 234 240 236 236 229 218 216 197 194 199 200 218 249 270 263 201 268 285 258 285 263 280 277 255
139 139 148 156 172 189 206 210 208 198 203 204 202 205 201 209 217 224 213 225 228 235 238 248 247 220 223 226 214 192 214 247 275 254 206 266 234 271 257 282 316 301 264
142 153 156 172 183 187 209 216 215 196 205 191 192 204 212 213 223 226 224 211 228 221 207 223 234 258 257 248 241 212 199 216 228 279 189 214 219 260 280 258 322 324 298